[[{"header":{"parameterUnit":"m.s-1","parameterCategory":1,"la1":30.2991,"la2":30.254,"lo1":-89.0895,"lo2":-89.0444,"dy":0.0017,"dx":0.0017,"nx":28,"ny":28,"refTime":"2024-06-24T21:00:00:Z","depth":0,"parameterNumber":2,"parameterNumberName":"U-component_of_WINDS"},"data":[0,0,0,0,0,0,0,0,0,0,0,0,0,0,0,0,0,0,0,0,0,0,0,0,0,0,0,0,0,0,0,0,0,0,0,0,0,0,0,0,0,0,0,0,0,0,0,0,0,0,0,0,0,0,0,0,0,0,2.363,2.363,0,2.362,2.362,2.362,2.3545,2.3543,2.3541,2.3539,2.3537,2.3538,2.354,0,0,0,0,0,0,0,0,0,0,0,0,0,2.3592,2.3593,2.363,2.363,2.363,2.362,2.362,2.362,2.3545,2.3543,2.354,2.3538,2.3536,2.3538,2.354,0,0,0,0,0,0,0,0,0,0,0,0,0,2.3598,2.3593,2.363,2.3591,2.3588,2.362,2.362,2.362,2.3545,2.3543,2.354,2.3537,2.3535,2.3538,2.354,2.3612,0,0,2.3548,2.3549,0,0,0,0,0,0,0,0,2.3598,2.36,2.3597,2.3594,2.359,2.3581,2.3605,2.3618,2.3546,2.3562,2.3539,2.3536,2.3554,2.3555,2.3559,2.3612,2.3612,2.3548,2.355,2.3551,2.3551,0,0,0,0,0,0,0,2.3597,2.36,2.3626,2.3597,2.3593,2.3577,2.3574,2.3607,2.3574,2.356,2.3555,2.3554,2.3552,2.3557,2.3559,2.3612,2.3548,2.355,2.3552,2.3553,2.3725,2.3728,0,0,0,0,0,0,2.3601,2.36,2.3627,2.3626,2.3587,2.358,2.3577,2.3587,2.3573,2.3568,2.3556,2.3551,2.3554,2.3556,2.3558,2.3643,2.3551,2.3553,2.3555,2.3722,2.3725,2.3729,0,0,0,0,0,0,2.3601,2.3605,2.3627,2.3611,2.3613,2.3583,2.3595,2.3588,2.3593,2.357,2.3565,2.3568,2.3552,2.3555,2.3599,2.3641,2.3554,2.3557,2.3718,2.3723,2.3727,2.3811,0,0,0,0,0,0,2.36,2.3605,2.363,2.3612,2.3614,2.3666,2.3597,2.359,2.3597,2.3589,2.358,2.3575,2.355,2.3596,2.3602,2.3643,2.3559,2.3714,2.372,2.3726,2.3805,2.3818,2.383,0,0,0,0,0,2.3599,2.3655,2.3632,2.3635,2.3645,2.3669,2.367,2.3637,2.36,2.3627,2.3612,2.3576,2.3636,2.3601,2.3607,2.365,2.3711,2.3718,2.3725,2.3799,2.3815,2.3829,0,0,0,0,0,0,2.3681,2.3652,2.3626,2.3678,2.3676,2.3656,2.3688,2.3656,2.3666,2.3659,2.362,2.3619,2.367,2.3664,2.3626,2.372,2.3667,2.3676,2.3721,2.3737,2.3749,2.375,2.3561,0,0,0,0,0,2.3705,2.3725,2.3699,2.3748,2.3748,2.3718,2.3728,2.3702,2.37,2.37,2.3688,2.369,2.3709,2.3722,2.3738,2.3803,2.3801,2.3836,2.3848,2.3859,2.3867,2.3903,2.3918,2.3751,2.3751,2.3751,0,0,2.3756,2.3742,2.3757,2.3764,2.3759,2.3783,2.3718,2.3746,2.3763,2.3705,2.3745,2.3737,2.3736,2.3791,2.3815,2.3788,2.3913,2.3868,2.3876,2.3879,2.3911,2.3927,2.3941,2.3756,2.3755,2.3754,0,0,2.3859,2.385,2.389,2.3886,2.3879,2.3859,2.3869,2.3854,2.3845,2.3885,2.3842,2.3864,2.3897,2.3898,2.3903,2.4008,2.3976,2.4015,2.4081,2.4116,2.4129,2.4141,2.418,2.4194,2.4023,2.4023,2.4023,0,2.3923,2.3954,2.3915,2.3945,2.395,2.3895,2.3937,2.3936,2.3937,2.3943,2.3912,2.3953,2.3949,2.4004,2.4029,2.4035,2.4047,2.4016,2.413,2.4141,2.4151,2.4188,2.4203,2.4028,2.4027,2.4027,2.4026,0,2.4034,2.4057,2.409,2.4089,2.4098,2.4134,2.4103,2.4117,2.4091,2.4075,2.4117,2.411,2.4124,2.4135,2.4111,2.4188,2.4171,2.4136,2.4083,2.4173,2.4207,2.4221,2.4035,2.4033,2.4031,2.403,0,0,2.4191,2.4166,2.418,2.4179,2.4168,2.4186,2.422,2.4231,2.4245,2.4247,2.4277,2.4306,2.4273,2.4279,2.4255,2.4286,2.4371,2.4246,2.4246,2.4271,2.4457,2.4485,2.4502,2.4349,2.4351,2.4353,2.4458,0,2.4291,2.4346,2.4312,2.4373,2.4394,2.4342,2.4373,2.4371,2.4357,2.4375,2.436,2.4382,2.4336,2.434,2.4367,2.4355,2.4408,2.4346,2.4379,2.438,2.4382,2.4519,2.4549,2.4648,2.4471,2.4473,2.4475,0,2.4416,2.4421,2.4484,2.4469,2.4476,2.4504,2.4512,2.4529,2.4527,2.4515,2.4521,2.449,2.4525,2.4471,2.4521,2.448,2.4491,2.4487,2.449,2.4493,2.4434,2.4528,2.4678,2.4694,2.4495,2.4493,2.4492,0,2.4526,2.4549,2.4589,2.459,2.4573,2.4594,2.4588,2.4582,2.4592,2.46,2.4606,2.4619,2.4627,2.4639,2.4613,2.4576,2.4667,2.4611,2.4661,2.4662,2.4684,2.4683,2.484,2.4688,2.4688,2.4688,2.4688,0,2.4643,2.4684,2.4638,2.4663,2.4708,2.467,2.4716,2.4705,2.4701,2.4725,2.4682,2.4706,2.4669,2.4691,2.4671,2.4716,2.472,2.4713,2.4708,2.4718,2.4719,2.4726,2.4719,2.4692,2.4691,2.469,2.469,0,2.4774,2.4744,2.4785,2.4765,2.4761,2.4796,2.478,2.4804,2.4786,2.4818,2.4823,2.4797,2.482,2.4794,2.4816,2.4803,2.4865,2.4849,2.4865,2.4861,2.4913,2.4909,2.5081,2.5103,2.4936,2.4938,2.4939,0,2.4851,2.4881,2.4863,2.4875,2.4871,2.4891,2.49,2.4863,2.4875,2.4874,2.4899,2.4918,2.4931,2.4971,2.4956,2.4973,2.4958,2.5017,2.496,2.497,2.4961,2.496,2.4964,2.5029,2.5031,2.5033,2.5034,0,2.4992,2.4976,2.4989,2.4997,2.5008,2.5013,2.5016,2.5029,2.4991,2.5006,2.5028,2.5038,2.5059,2.5079,2.5092,2.5089,2.5057,2.5051,2.5064,2.5076,2.5085,2.5082,2.4898,2.5048,2.5047,2.5046,2.5045,2.5044,2.51,2.5124,2.5116,2.5132,2.5129,2.5132,2.5154,2.5138,2.5155,2.5167,2.5145,2.5173,2.5172,2.5184,2.5185,2.5208,2.5184,2.5202,2.5207,2.5212,2.5221,2.5079,2.5211,2.521,2.521,2.5209,2.5209,0,2.524,2.5231,2.5246,2.525,2.5263,2.5228,2.5229,2.5243,2.5267,2.5267,2.528,2.5306,2.5325,2.5311,2.5328,2.535,2.5336,2.5356,2.5355,2.5355,2.5241,2.5229,2.5367,2.5367,2.5367,2.5367,2.5367,2.5367,2.5315,2.5355,2.5338,2.5377,2.5368,2.5393,2.5397,2.5401,2.54,2.543,2.5445,2.5434,2.5429,2.5445,2.5463,2.5458,2.5468,2.5494,2.5485,2.5378,2.5363,2.5348,2.5337,2.5495,2.5496,2.5597,2.5598,2.5599]},{"header":{"parameterUnit":"m.s-1","parameterCategory":1,"la1":30.2991,"la2":30.254,"lo1":-89.0895,"lo2":-89.0444,"dy":0.0017,"dx":0.0017,"nx":28,"ny":28,"refTime":"2024-06-24T21:00:00:Z","depth":0,"parameterNumber":3,"parameterNumberName":"V-component_of_WINDS"},"data":[0,0,0,0,0,0,0,0,0,0,0,0,0,0,0,0,0,0,0,0,0,0,0,0,0,0,0,0,0,0,0,0,0,0,0,0,0,0,0,0,0,0,0,0,0,0,0,0,0,0,0,0,0,0,0,0,0,0,0.2289,0.229,0,0.2373,0.2373,0.2374,0.2451,0.2452,0.2453,0.2454,0.2535,0.2536,0.2537,0,0,0,0,0,0,0,0,0,0,0,0,0,0.219,0.2191,0.2289,0.229,0.2291,0.2372,0.2374,0.2375,0.2451,0.2452,0.2454,0.2455,0.2534,0.2536,0.2537,0,0,0,0,0,0,0,0,0,0,0,0,0,0.2249,0.2192,0.2289,0.2339,0.2345,0.2372,0.2374,0.2375,0.2451,0.2452,0.2454,0.2455,0.2534,0.2536,0.2537,0.252,0,0,0.2543,0.2544,0,0,0,0,0,0,0,0,0.2245,0.2252,0.2331,0.2336,0.2342,0.2403,0.2368,0.2424,0.2451,0.241,0.2454,0.2456,0.2489,0.2495,0.2507,0.2524,0.2528,0.2543,0.2544,0.2545,0.2546,0,0,0,0,0,0,0,0.2241,0.2249,0.2322,0.2332,0.2339,0.2356,0.2366,0.2379,0.2441,0.2414,0.242,0.2429,0.2493,0.2505,0.251,0.2529,0.2543,0.2545,0.2546,0.2547,0.2533,0.2532,0,0,0,0,0,0,0.223,0.2245,0.2319,0.2324,0.2296,0.2356,0.2367,0.2382,0.2441,0.2451,0.2428,0.2432,0.2501,0.2508,0.2513,0.2496,0.2545,0.2547,0.2548,0.2535,0.2533,0.2531,0,0,0,0,0,0,0.2228,0.2236,0.2316,0.2287,0.2298,0.2356,0.2372,0.2383,0.2396,0.2451,0.2462,0.243,0.2503,0.251,0.2518,0.25,0.2548,0.255,0.2537,0.2534,0.2532,0.2462,0,0,0,0,0,0,0.2225,0.2235,0.2231,0.2286,0.2299,0.2321,0.2371,0.2383,0.2399,0.2406,0.2456,0.2466,0.2505,0.2515,0.252,0.2503,0.2551,0.2538,0.2535,0.2533,0.2466,0.2457,0.245,0,0,0,0,0,0.2221,0.2207,0.223,0.2238,0.2296,0.232,0.2328,0.2374,0.2398,0.2393,0.2428,0.2464,0.2501,0.2515,0.2521,0.2505,0.254,0.2536,0.2533,0.247,0.2459,0.245,0,0,0,0,0,0,0.2147,0.2215,0.2242,0.2246,0.2276,0.2333,0.2329,0.2362,0.2386,0.2391,0.2446,0.2456,0.2457,0.2482,0.2496,0.249,0.2525,0.2523,0.2474,0.2465,0.2457,0.2451,0.2553,0,0,0,0,0,0.2131,0.2147,0.2205,0.2203,0.2217,0.227,0.2282,0.2315,0.2349,0.2362,0.2398,0.2428,0.2446,0.2457,0.2477,0.247,0.248,0.2461,0.2453,0.2446,0.2444,0.244,0.2432,0.252,0.252,0.252,0,0,0.2098,0.2138,0.2144,0.2189,0.2217,0.223,0.228,0.2293,0.2303,0.2364,0.2373,0.24,0.2437,0.2436,0.2438,0.2457,0.2421,0.2442,0.2436,0.2438,0.2436,0.2427,0.242,0.2518,0.2518,0.2519,0,0,0.2046,0.2078,0.2079,0.2106,0.2148,0.2183,0.2182,0.2234,0.2254,0.2265,0.231,0.2321,0.2352,0.2376,0.2392,0.2346,0.2379,0.235,0.2309,0.2304,0.2297,0.2291,0.2274,0.2267,0.2347,0.2347,0.2347,0,0.2,0.2024,0.2075,0.2084,0.2101,0.2158,0.2158,0.2181,0.2226,0.2236,0.2257,0.2295,0.2324,0.2329,0.2317,0.2329,0.2329,0.2345,0.2295,0.2289,0.2284,0.2268,0.2261,0.2343,0.2344,0.2344,0.2345,0,0.1964,0.1979,0.1975,0.2019,0.2035,0.204,0.2089,0.2099,0.213,0.2162,0.217,0.2206,0.2234,0.2237,0.2267,0.2246,0.2256,0.2285,0.2321,0.2271,0.2257,0.2251,0.2338,0.2339,0.2341,0.2341,0,0,0.1869,0.194,0.1937,0.1957,0.2006,0.2018,0.2023,0.2052,0.2058,0.2087,0.2092,0.2115,0.2142,0.216,0.2192,0.2188,0.2147,0.2217,0.2219,0.2202,0.2124,0.2102,0.2094,0.217,0.2169,0.2168,0.2121,0,0.1824,0.1841,0.1885,0.1887,0.19,0.1953,0.1957,0.1986,0.2015,0.203,0.2061,0.2076,0.2111,0.2122,0.212,0.2153,0.2132,0.2157,0.2173,0.2173,0.2162,0.2087,0.2064,0.2018,0.2115,0.2114,0.2114,0,0.1775,0.1801,0.1804,0.1851,0.1858,0.1862,0.189,0.1904,0.1937,0.1958,0.1977,0.2013,0.2019,0.2052,0.2061,0.2076,0.2085,0.2101,0.2101,0.2104,0.214,0.2087,0.2004,0.1997,0.2105,0.2106,0.2107,0,0.1704,0.174,0.1746,0.1761,0.1816,0.1817,0.184,0.1875,0.1888,0.1911,0.192,0.1943,0.1956,0.1972,0.2013,0.2033,0.2015,0.2052,0.2031,0.203,0.2026,0.2025,0.1943,0.2032,0.2032,0.2032,0.2032,0,0.165,0.1649,0.1715,0.1718,0.1718,0.1768,0.1766,0.1793,0.1823,0.1831,0.1877,0.1883,0.1937,0.1948,0.1979,0.198,0.1986,0.2001,0.201,0.1997,0.1995,0.2004,0.2008,0.203,0.203,0.2031,0.2031,0,0.1571,0.1615,0.1625,0.1676,0.1689,0.1686,0.1729,0.1733,0.1764,0.1773,0.1778,0.1827,0.1842,0.1884,0.191,0.1931,0.1923,0.1939,0.1912,0.1917,0.1894,0.1895,0.1813,0.1804,0.1899,0.1898,0.1897,0,0.1534,0.1534,0.1585,0.1595,0.1616,0.163,0.1644,0.1692,0.1704,0.1741,0.1739,0.1759,0.1777,0.1799,0.1835,0.1854,0.1871,0.184,0.1874,0.186,0.1869,0.1868,0.1868,0.1833,0.1832,0.1831,0.183,0,0.1462,0.1483,0.1502,0.1528,0.1543,0.1565,0.159,0.1594,0.1648,0.1659,0.1676,0.169,0.1716,0.1734,0.1759,0.178,0.1813,0.1819,0.1815,0.1802,0.1787,0.1794,0.1892,0.1821,0.1822,0.1823,0.1823,0.1823,0.1402,0.1405,0.1441,0.1459,0.1483,0.1505,0.1511,0.1542,0.1558,0.1584,0.1611,0.1624,0.1655,0.1692,0.171,0.172,0.1737,0.1732,0.173,0.1728,0.1722,0.1785,0.1724,0.1725,0.1725,0.1725,0.1725,0,0.1332,0.1357,0.1374,0.1408,0.1421,0.1453,0.1481,0.149,0.1502,0.1528,0.1545,0.1563,0.158,0.1617,0.1636,0.1637,0.1652,0.164,0.164,0.1644,0.1705,0.1707,0.1627,0.1627,0.1627,0.1627,0.1627,0.1627,0.1297,0.1303,0.1328,0.1344,0.1369,0.1384,0.1397,0.1416,0.1437,0.1456,0.1471,0.1495,0.1524,0.1546,0.1562,0.1572,0.1577,0.156,0.1574,0.1631,0.164,0.1649,0.165,0.156,0.156,0.1512,0.1512,0.1511]}]]